Regional Weather Roundup
Issued by NWS

Home | Current Version | Previous Version | Text Only | Print | Product List | Glossary Off
Versions: 1 2 3 4 5 6 7 8 9 10 11 12 13 14 15 16 17 18 19 20 21 22 23 24 25 26 27 28 29 30 31 32 33 34 35 36 37 38 39 40 41 42 43 44 45 46 47 48 49 50

000
ASUS43 KDTX 301601
RWRMI
MICHIGAN HOURLY REGIONAL WEATHER ROUNDUP
NATIONAL WEATHER SERVICE DETROIT/PONTIAC MI
1200 PM EDT SAT APR 30 2016

NOTE: "FAIR" INDICATES FEW OR NO CLOUDS BELOW 12,000 FEET WITH NO
SIGNIFICANT WEATHER AND/OR OBSTRUCTION TO VISIBILITY.

MIZ047>049-052>055-059>063-066>070-074>076-081>083-301700-
SOUTHEAST LOWER MICHIGAN

CITY           SKY/WX    TMP DP  RH WIND       PRES   REMARKS
ADRIAN         PTSUNNY   53  37  54 E14       30.11S
ALMA           CLOUDY    52  35  52 E9        30.15S
ANN ARBOR      MOSUNNY   54  36  50 E13       30.11F
BAD AXE        CLOUDY    55  31  39 SE9       30.16F
CARO           CLOUDY    55  33  42 E7        30.15R
DETROIT CITY   MOSUNNY   52  37  56 SE10G24   30.15F
DETROIT        CLOUDY    54  37  52 NE9G16    30.13F
FLINT          MOSUNNY   58  32  37 E14       30.13F
GROSSE ILE     MOSUNNY   54  39  58 E9        30.11F
HILLSDALE      CLOUDY    50  36  58 E14       30.09R
HOWELL         CLOUDY    55  30  39 E10G16    30.11F

CITY           SKY/WX    TMP DP  RH WIND       PRES   REMARKS
JACKSON        CLOUDY    54  32  43 E12       30.09F
LAMBERTVILLE   MOSUNNY   52  37  56 E9G16     30.12R
LANSING        CLOUDY    54  34  46 E10G24    30.12F
LAPEER         FAIR      56  30  37 SE9G16    30.15S
MASON          MOSUNNY   53  32  44 E8G20     30.11F
MONROE         MOSUNNY   52  39  62 E13G22    30.12F
MT. CLEMENS    MOSUNNY   53  39  59 SE10      30.14S
PONTIAC        CLOUDY    53  34  48 E12G20    30.12F
PORT HOPE        N/A     43  37  79 E7        30.17F
PORT HURON     CLOUDY    55  37  50 MISG      30.15S
TRI CITIES     CLOUDY    56  33  42 E8        30.16S
MIDLAND        CLOUDY    54  31  42 E8        30.16R
TROY           MOSUNNY   54  34  48 E14       30.16S
SAGINAW HB     PTSUNNY   54  37  54 E7        30.14S
$$
MIZ043>046-050>051-056>058-064>065-071>073-077>080-301700-
SOUTHWEST LOWER MICHIGAN

CITY           SKY/WX    TMP DP  RH WIND       PRES   REMARKS
BATTLE CREEK   CLOUDY    52  33  48 SE12      30.10S
BENTON HARBOR  CLOUDY    51  37  58 E13G22    30.07F
BIG RAPIDS     CLOUDY    52  28  39 E14       30.14R
COLDWATER      CLOUDY    51  35  54 E9        30.09S
FREMONT        FAIR      53  28  39 E10G17    30.13S
HOLLAND        CLOUDY    52  36  54 E12       30.11S
GRAND RAPIDS   CLOUDY    52  34  50 E15       30.11F
IONIA          FAIR      51  35  53 NE12      30.11F
KALAMAZOO      CLOUDY    53  32  44 SE8       30.10R
LUDINGTON      CLOUDY    55  32  42 E8        30.13F
MARSHALL       CLOUDY    53  32  44 E9        30.10R
MOUNT PLEASANT MOSUNNY   55  31  39 E9        30.14S
MUSKEGON       CLOUDY    53  33  46 E13G21    30.12S
$$
MIZ016>042-301700-
NORTHERN LOWER MICHIGAN

CITY           SKY/WX    TMP DP  RH WIND       PRES   REMARKS
ALPENA         SUNNY     55  26  32 NE9       30.20F
BEAVER ISLAND  CLOUDY    52  31  44 E6        30.21R
BELLAIRE       MOSUNNY   56  26  31 E5        30.17S
CADILLAC       CLOUDY    53  31  42 E12       30.14R
CHARLEVOIX     PTSUNNY   50  33  51 N9        30.22R
FRANKFORT      CLOUDY    56  35  44 N6        30.15S
GAYLORD        MOSUNNY   53  23  31 E8        30.17S
HARBOR SPRINGS SUNNY     56  27  32 NE9       30.19R
HOUGHTON LAKE  CLOUDY    54  26  34 E9        30.16S
MANISTEE       MOSUNNY   55  32  41 NE7       30.15S
OSCODA         MOSUNNY   53  29  41 E7        30.19R
PELLSTON       SUNNY     57  26  30 SE12      30.19F
ROGERS CITY    SUNNY     46  34  63 NE7       30.22S
TRAVERSE CITY  CLOUDY    54  30  40 N8        30.16R
$$
MIZ007>008-015-301700-
EASTERN UPPER MICHIGAN

CITY           SKY/WX    TMP DP  RH WIND       PRES   REMARKS
KINROSS          N/A     54  27  35 E5        30.21R
MACKINAC ISLAN SUNNY     48  26  41 E6        30.22R
NEWBERRY       PTSUNNY   56  32  41 SE3       30.20R
S. S. MARIE    MOSUNNY   55  29  36 VRB6      30.20S
MUNISING         N/A     41  36  82 NE14      30.24R
$$
MIZ004>006-011>014-085-301700-
CENTRAL UPPER MICHIGAN

CITY           SKY/WX    TMP DP  RH WIND       PRES   REMARKS
MANISTIQUE     SUNNY     54  34  46 SE9       30.20S
ESCANABA       CLOUDY    55  34  44 NE8       30.19F
MENOMINEE      CLOUDY    48  34  57 E17       30.19R
SAWYER-GWINN   SUNNY     45  32  61 NE13G18   30.24S
$$
MIZ001>003-009>011-084-301700-
WESTERN UPPER MICHIGAN

CITY           SKY/WX    TMP DP  RH WIND       PRES   REMARKS
IRON MOUNTAIN  CLOUDY    54  31  41 VRB7      30.17F
HOUGHTON       PTSUNNY   47  33  58 E13G18    30.26R
COPPER HARBOR    N/A     41  37  86 NE10      30.29S
IRONWOOD         N/A     50  32  50 NE14      30.20S
$$

ABBREVIATIONS USED IN REMARKS
   TC - TEMPERATURE IN CELSIUS
  WCI - WIND CHILL INDEX
   HX - HEAT INDEX
  VSB - VISIBILITY




USA.gov is the U.S. government's official web portal to all federal, state and local government web resources and services.